This is the latest recevied weather packets stored in our database for station/object SV2RCS-13. If no packets are shown the sender has not sent any weather packets the latest 10 day(s).
| Time | Temp. | Humidity | Pressure | Rain* | Wind** | Luminosity | Snow |
|---|---|---|---|---|---|---|---|
| 1777247815 | 16.67° C | 28% | 1016.2 hPa | - | - | - | - |
| 1777247215 | 16.67° C | 28% | 1016.2 hPa | - | - | - | - |
| 1777246615 | 17.22° C | 29% | 1016.3 hPa | - | - | - | - |
| 1777246016 | 17.22° C | 29% | 1015.9 hPa | - | - | - | - |
| 1777245415 | 17.22° C | 30% | 1016.1 hPa | - | - | - | - |
| 1777244815 | 17.22° C | 31% | 1016 hPa | - | - | - | - |
| 1777244215 | 17.22° C | 32% | 1016 hPa | - | - | - | - |
| 1777243615 | 17.22° C | 32% | 1016.1 hPa | - | - | - | - |
| 1777243015 | 17.22° C | 32% | 1016 hPa | - | - | - | - |
| 1777242415 | 17.22° C | 32% | 1015.9 hPa | - | - | - | - |
| 1777241818 | 17.22° C | 32% | 1015.8 hPa | - | - | - | - |
| 1777241214 | 16.67° C | 32% | 1015.9 hPa | - | - | - | - |
| 1777240615 | 16.67° C | 33% | 1015.8 hPa | - | - | - | - |
| 1777240018 | 16.67° C | 33% | 1015.7 hPa | - | - | - | - |
| 1777239417 | 16.67° C | 34% | 1015.6 hPa | - | - | - | - |
| 1777238814 | 16.11° C | 37% | 1015.8 hPa | - | - | - | - |
| 1777238214 | 16.11° C | 38% | 1015.5 hPa | - | - | - | - |
| 1777237615 | 16.11° C | 38% | 1015.5 hPa | - | - | - | - |
| 1777237014 | 15.56° C | 39% | 1015.5 hPa | - | - | - | - |
| 1777236414 | 16.67° C | 37% | 1015.2 hPa | - | - | - | - |
| 1777235815 | 16.67° C | 36% | 1015.1 hPa | - | - | - | - |
| 1777235214 | 16.67° C | 35% | 1014.9 hPa | - | - | - | - |
| 1777234614 | 17.22° C | 34% | 1014.9 hPa | - | - | - | - |
| 1777234016 | 17.22° C | 33% | 1014.6 hPa | - | - | - | - |
| 1777233415 | 17.78° C | 32% | 1014.6 hPa | - | - | - | - |
* Rain since midnight (hover to see other rain measurements)
** Current wind speed in m/s (hover to see current wind gust speed)